[[{"header":{"parameterUnit":"m.s-1","parameterCategory":1,"la1":30.2992,"la2":30.254,"lo1":-89.0895,"lo2":-89.0443,"dy":0.0025,"dx":0.0025,"nx":19,"ny":19,"refTime":"2026-05-21T09:00:00:Z","depth":0,"parameterNumber":2,"parameterNumberName":"U-component_of_WINDS"},"data":[0,0,0,-2.2284,-2.2283,-2.2229,-2.2228,-2.2175,-2.2174,0,0,0,0,0,0,0,0,0,0,0,-2.231,-2.231,-2.2284,-2.2283,-2.2229,-2.2228,-2.2175,-2.2174,0,0,0,0,0,0,0,0,0,0,0,-2.231,-2.231,-2.231,-2.2282,-2.2229,-2.2228,-2.2175,-2.221,0,0,0,0,0,0,0,0,0,0,-2.226,-2.2294,-2.231,-2.231,-2.2282,-2.2229,-2.2228,-2.2211,-2.2208,-2.2206,0,-2.2208,0,-2.2191,-2.2172,-2.2172,0,0,0,-2.2275,-2.2298,-2.2273,-2.231,-2.2282,-2.2229,-2.2251,-2.2209,-2.2205,-2.2201,-2.2207,-2.2205,-2.219,-2.2172,-2.2172,-2.2189,-2.2189,0,0,-2.2278,-2.2306,-2.2276,-2.2271,-2.2282,-2.2253,-2.2249,-2.2206,-2.2215,-2.2207,-2.2203,-2.2189,-2.2171,-2.2171,-2.2188,-2.2189,0,0,0,-2.2292,-2.2308,-2.2285,-2.2274,-2.2263,-2.2251,-2.2247,-2.2216,-2.2206,-2.2203,-2.2188,-2.2171,-2.2171,-2.2188,-2.2189,-2.2237,0,0,0,-2.2293,-2.2316,-2.2287,-2.2303,-2.2264,-2.2239,-2.2259,-2.2209,-2.2204,-2.2189,-2.2171,-2.217,-2.2187,-2.2188,-2.2234,-2.2255,0,0,0,-2.231,-2.2318,-2.2314,-2.2305,-2.2283,-2.2239,-2.2227,-2.2207,-2.2195,-2.2172,-2.217,-2.2187,-2.2188,-2.2232,-2.2251,-2.2266,0,0,0,-2.2336,-2.2359,-2.2315,-2.2335,-2.2283,-2.227,-2.2227,-2.2216,-2.2201,-2.2171,-2.2187,-2.2188,-2.2232,-2.2249,-2.2264,-2.2283,-2.2293,0,0,-2.238,-2.2365,-2.2374,-2.2334,-2.2335,-2.2276,-2.2284,-2.2245,-2.2217,-2.22,-2.22,-2.2235,-2.2251,-2.2265,-2.2347,-2.2356,0,0,0,-2.2398,-2.2405,-2.2399,-2.2386,-2.2357,-2.2332,-2.2288,-2.2273,-2.2257,-2.2214,-2.2244,-2.2253,-2.226,-2.2268,-2.2275,-2.2279,-2.2194,-2.2194,-2.2193,-2.25,-2.2463,-2.2475,-2.2431,-2.2419,-2.2373,-2.2359,-2.2331,-2.2298,-2.2305,-2.2299,-2.2353,-2.2363,-2.2369,-2.2373,-2.2307,-2.2308,-2.2308,-2.2308,-2.256,-2.2563,-2.2517,-2.2512,-2.2472,-2.2467,-2.2422,-2.2398,-2.2387,-2.2355,-2.236,-2.2328,-2.238,-2.2381,-2.2311,-2.2311,-2.231,-2.231,-2.231,-2.2622,-2.2617,-2.2598,-2.2575,-2.2561,-2.2515,-2.2505,-2.247,-2.2436,-2.244,-2.2429,-2.2428,-2.2421,-2.2438,-2.2438,-2.2438,-2.2438,-2.2438,-2.2438,-2.2693,-2.267,-2.2667,-2.2636,-2.2622,-2.2599,-2.2552,-2.2537,-2.2511,-2.2485,-2.2485,-2.2449,-2.2393,-2.2378,-2.2441,-2.2441,-2.244,-2.244,-2.244,-2.2766,-2.2743,-2.2738,-2.2724,-2.2683,-2.2671,-2.2625,-2.2597,-2.2579,-2.2575,-2.2538,-2.2503,-2.2484,-2.2478,-2.2466,-2.2548,-2.2548,-2.2548,-2.2548,-2.2817,-2.2804,-2.2789,-2.2769,-2.2745,-2.2702,-2.2696,-2.2658,-2.2616,-2.2602,-2.2585,-2.2566,-2.2562,-2.2546,-2.2538,-2.2526,-2.2621,-2.2621,-2.2621,-2.2858,-2.2841,-2.2843,-2.2802,-2.2767,-2.2737,-2.2729,-2.2706,-2.2653,-2.2624,-2.259,-2.2587,-2.2556,-2.2548,-2.2517,-2.2506,-2.2483,0,0]},{"header":{"parameterUnit":"m.s-1","parameterCategory":1,"la1":30.2992,"la2":30.254,"lo1":-89.0895,"lo2":-89.0443,"dy":0.0025,"dx":0.0025,"nx":19,"ny":19,"refTime":"2026-05-21T09:00:00:Z","depth":0,"parameterNumber":3,"parameterNumberName":"V-component_of_WINDS"},"data":[0,0,0,1.4434,1.4437,1.4593,1.4594,1.4776,1.4777,0,0,0,0,0,0,0,0,0,0,0,1.4379,1.438,1.4433,1.4437,1.4593,1.4594,1.4775,1.4777,0,0,0,0,0,0,0,0,0,0,0,1.4378,1.4379,1.4381,1.4438,1.4593,1.4594,1.4775,1.4663,0,0,0,0,0,0,0,0,0,0,1.4514,1.4456,1.4379,1.4381,1.4438,1.4593,1.4594,1.4658,1.467,1.4698,0,1.4722,0,1.4753,1.4788,1.4789,0,0,0,1.4443,1.4446,1.4496,1.4381,1.444,1.4593,1.4524,1.4665,1.4678,1.4714,1.4725,1.4732,1.4756,1.4789,1.479,1.4936,1.4937,0,0,1.4434,1.4402,1.4486,1.4504,1.4482,1.4519,1.4529,1.4673,1.4683,1.4726,1.4737,1.4759,1.4791,1.4792,1.4936,1.4936,0,0,0,1.4405,1.4395,1.4442,1.4496,1.4526,1.4524,1.4535,1.4676,1.4695,1.4739,1.4761,1.4792,1.4794,1.4936,1.4936,1.4926,0,0,0,1.4401,1.4379,1.4438,1.442,1.4523,1.4604,1.4534,1.4684,1.4702,1.476,1.4792,1.4795,1.4935,1.4936,1.4925,1.4926,0,0,0,1.4371,1.4376,1.4395,1.4418,1.4484,1.4602,1.4629,1.4689,1.4715,1.4789,1.4796,1.4935,1.4936,1.4925,1.4926,1.4955,0,0,0,1.433,1.4383,1.4395,1.4462,1.4483,1.4595,1.4628,1.4713,1.4775,1.4792,1.4935,1.4936,1.4925,1.4925,1.4954,1.4975,1.498,0,0,1.4379,1.4388,1.443,1.4445,1.4547,1.4574,1.4674,1.4761,1.4796,1.4887,1.4891,1.4926,1.4925,1.4955,1.5022,1.5026,0,0,0,1.4434,1.4464,1.4498,1.4557,1.4626,1.4684,1.4759,1.4791,1.487,1.4837,1.4945,1.4946,1.4965,1.4976,1.498,1.4997,1.494,1.494,1.494,1.4457,1.4501,1.4573,1.4635,1.4691,1.4768,1.4817,1.4873,1.49,1.4924,1.4952,1.4987,1.4999,1.5002,1.502,1.4966,1.4966,1.4966,1.4966,1.4532,1.4581,1.4616,1.4699,1.4744,1.4813,1.4888,1.4904,1.4974,1.497,1.4989,1.4982,1.5005,1.5023,1.4965,1.4966,1.4966,1.4966,1.4966,1.4552,1.4583,1.4622,1.4711,1.4774,1.4834,1.4899,1.4938,1.4974,1.4992,1.5025,1.5025,1.503,1.5005,1.5005,1.5005,1.5005,1.5005,1.5005,1.4557,1.4601,1.4653,1.4729,1.4772,1.4832,1.4908,1.495,1.5006,1.5029,1.5029,1.5052,1.5,1.4986,1.5007,1.5007,1.5007,1.5007,1.5006,1.4617,1.461,1.4689,1.4732,1.4824,1.4884,1.4932,1.5013,1.5053,1.5084,1.5103,1.5058,1.5069,1.5067,1.5055,1.5094,1.5094,1.5094,1.5094,1.4634,1.4644,1.4734,1.4799,1.4867,1.4918,1.5004,1.5063,1.5122,1.5149,1.5149,1.5137,1.5132,1.5147,1.5142,1.5132,1.5189,1.519,1.519,1.4674,1.4692,1.4759,1.4819,1.4894,1.4956,1.5038,1.5109,1.5175,1.5194,1.5171,1.5167,1.5148,1.514,1.5159,1.5152,1.5134,0,0]}]]